This is the latest recevied weather packets stored in our database for station/object KE4EST. If no packets are shown the sender has not sent any weather packets the latest 10 day(s).
| Time | Temp. | Humidity | Pressure | Rain* | Wind** | Luminosity | Snow |
|---|---|---|---|---|---|---|---|
| 1777469634 | 16.11° C | 99% | 1015 hPa | 0 mm | - | 21 W/m² | - |
| 1777469330 | 16.11° C | 99% | 1015 hPa | 0 mm | - | 33 W/m² | - |
| 1777469026 | 15.56° C | 99% | 1015 hPa | 0 mm | - | 33 W/m² | - |
| 1777468720 | 16.11° C | 99% | 1015.1 hPa | 0 mm | - | 32 W/m² | - |
| 1777468417 | 16.11° C | 99% | 1015.2 hPa | 0 mm | - | 58 W/m² | - |
| 1777468113 | 16.11° C | 99% | 1015.1 hPa | 0 mm | - | 85 W/m² | - |
| 1777467810 | 16.11° C | 99% | 1015.1 hPa | 0 mm | - | 137 W/m² | - |
| 1777467505 | 15.56° C | 99% | 1015.2 hPa | 0 mm | - | 89 W/m² | - |
| 1777467201 | 15.56° C | 99% | 1015.4 hPa | 0 mm | - | 68 W/m² | - |
| 1777466898 | 15.56° C | 99% | 1015.4 hPa | 0 mm | - | 95 W/m² | - |
| 1777466596 | 15.56° C | 99% | 1015.4 hPa | 0 mm | - | 63 W/m² | - |
| 1777466292 | 15.56° C | 99% | 1015.4 hPa | 0 mm | - | 52 W/m² | - |
| 1777465988 | 15.56° C | 99% | 1015.6 hPa | 0 mm | - | 38 W/m² | - |
| 1777465684 | 15.56° C | 99% | 1015.4 hPa | 0 mm | - | 40 W/m² | - |
| 1777465380 | 15° C | 99% | 1015.5 hPa | 0 mm | - | 55 W/m² | - |
| 1777465079 | 15° C | 99% | 1015.1 hPa | 0 mm | - | 33 W/m² | - |
| 1777464775 | 15° C | 99% | 1015.4 hPa | 0 mm | - | 36 W/m² | - |
| 1777464471 | 15° C | 99% | 1014.7 hPa | 0 mm | - | 36 W/m² | - |
| 1777464167 | 15° C | 99% | 1014.9 hPa | 0 mm | - | 35 W/m² | - |
| 1777463866 | 15° C | 99% | 1014.7 hPa | 0 mm | - | 35 W/m² | - |
| 1777463562 | 15° C | 99% | 1014.8 hPa | 0 mm | - | 31 W/m² | - |
| 1777463257 | 15° C | 99% | 1014.7 hPa | 0 mm | - | 26 W/m² | - |
| 1777462954 | 15° C | 99% | 1014.8 hPa | 0 mm | - | 22 W/m² | - |
| 1777462650 | 15° C | 99% | 1014.7 hPa | 0 mm | - | 22 W/m² | - |
| 1777462345 | 15° C | 99% | 1014.6 hPa | 0 mm | - | 19 W/m² | - |
* Rain latest hour (hover to see other rain measurements)
** Current wind speed in m/s (hover to see current wind gust speed)